DW8306 Weather Reports


time (UTC)temp
F
wind
direction
speed
knots
gust
knots
rain 1hr
in
rain 24hr
in
rain mn
in
humidity
%
barometer
mb
20260509004618 72 9 0.0 1.7 0.00 0.00 0.00 79 1007.7
20260509003018 74 194 0.0 3.5 0.00 0.00 0.00 76 1007.6
20260509001622 75 295 0.0 4.3 0.00 0.00 0.00 75 1008.7
20260509000120 75 315 0.0 0.9 0.00 0.00 0.00 74 1008.7
20260508233008 75 212 0.0 0.0 0.00 0.00 0.00 68 1009.8
20260508231613 76 212 0.0 0.0 0.00 0.00 0.00 66 1010.0
20260508230018 77 212 0.0 0.9 0.00 0.00 0.00 65 1009.6
20260508224515 78 91 0.9 4.3 0.00 0.00 0.00 67 1009.6
20260508223009 78 254 0.0 1.7 0.00 0.00 0.00 66 1009.3
20260508221508 79 65 0.9 5.2 0.00 0.00 0.00 64 1009.1
20260508220013 78 259 0.9 4.3 0.00 0.00 0.00 62 1009.2
20260508214510 78 349 0.0 0.9 0.00 0.00 0.00 62 1009.7
20260508213025 78 42 0.0 0.9 0.00 0.00 0.00 60 1009.6
20260508211516 79 118 0.0 4.3 0.00 0.00 0.00 57 1009.6
20260508210027 81 14 0.0 1.7 0.00 0.00 0.00 60 1009.7
20260508204605 81 209 0.0 4.3 0.00 0.00 0.00 55 1009.9
20260508203110 80 145 1.7 5.2 0.00 0.00 0.00 56 1009.8
20260508201519 81 326 0.0 3.5 0.00 0.00 0.00 59 1010.0
20260508200119 80 84 0.0 5.2 0.00 0.00 0.00 56 1010.2
20260508194520 78 89 0.9 4.3 0.00 0.00 0.00 60 1010.3
20260508193007 79 100 0.9 3.5 0.00 0.00 0.00 57 1010.7
20260508191611 79 243 0.0 4.3 0.00 0.00 0.00 62 1011.0
20260508190009 78 247 0.0 1.7 0.00 0.00 0.00 62 1011.2
20260508184516 77 273 0.0 1.7 0.00 0.00 0.00 59 1011.5
20260508183005 75 115 2.6 7.0 0.00 0.00 0.00 60 1011.7
20260508181513 75 93 1.7 5.2 0.00 0.00 0.00 61 1011.7
20260508180005 74 74 0.0 7.0 0.00 0.00 0.00 62 1012.0
20260508174510 76 20 0.0 4.3 0.00 0.00 0.00 62 1012.4
20260508171510 74 217 0.0 4.3 0.00 0.00 0.00 62 1012.8
20260508170106 74 354 0.9 7.0 0.00 0.00 0.00 62 1013.1
20260508164605 73 4 0.0 3.5 0.00 0.00 0.00 63 1013.6
20260508163004 72 314 0.0 8.7 0.00 0.00 0.00 64 1013.8
20260508161505 73 191 0.0 4.3 0.00 0.00 0.00 62 1014.4
20260508160105 72 89 0.0 6.1 0.00 0.00 0.00 63 1014.8
20260508153022 68 152 0.0 5.2 0.00 0.00 0.00 66 1015.3
20260508151611 68 88 0.0 4.3 0.00 0.00 0.00 65 1015.6
20260508150020 68 100 0.0 4.3 0.00 0.00 0.00 66 1015.3
20260508144607 66 87 0.0 3.5 0.00 0.00 0.00 74 1015.0
20260508143017 64 56 0.0 5.2 0.00 0.00 0.00 74 1015.2
20260508141620 64 58 0.0 3.5 0.00 0.00 0.00 74 1015.2
20260508140121 63 73 0.9 5.2 0.00 0.00 0.00 74 1015.1
20260508134518 63 95 2.6 6.1 0.00 0.00 0.00 75 1014.4
20260508133008 62 44 0.0 6.1 0.00 0.00 0.00 78 1013.7
20260508131522 62 79 0.9 5.2 0.00 0.00 0.00 79 1013.9
20260508130108 62 85 0.0 0.0 0.00 0.00 0.00 80 1014.3
20260508124607 62 105 0.0 0.9 0.00 0.00 0.00 81 1014.2
20260508123014 61 57 0.0 0.9 0.00 0.00 0.00 83 1014.2
20260508121515 60 38 0.0 0.0 0.00 0.00 0.00 86 1014.4
20260508120122 59 38 0.0 0.0 0.00 0.00 0.00 87 1014.6
20260508114605 59 38 0.0 0.0 0.00 0.00 0.00 87 1014.9
20260508113008 59 35 0.0 0.0 0.00 0.00 0.00 87 1014.9
20260508111607 59 39 0.0 0.0 0.00 0.00 0.00 88 1015.0
20260508110010 60 79 0.0 0.0 0.00 0.00 0.00 88 1014.6
20260508104512 60 79 0.0 0.0 0.00 0.00 0.00 87 1014.4
20260508100008 59 4 0.0 0.0 0.00 0.00 0.00 89 1014.3
20260508094519 59 4 0.0 0.0 0.00 0.00 0.00 88 1014.5
20260508093104 59 4 0.0 0.0 0.00 0.00 0.00 88 1014.4
20260508091517 59 8 0.0 0.0 0.00 0.00 0.00 88 1014.4
20260508090012 60 4 0.0 0.0 0.00 0.00 0.00 87 1014.4
20260508084618 60 4 0.0 0.0 0.00 0.00 0.00 86 1014.6
20260508083017 60 4 0.0 0.0 0.00 0.00 0.00 85 1014.6
20260508081523 61 8 0.0 0.0 0.00 0.00 0.00 85 1014.4
20260508080112 61 4 0.0 0.0 0.00 0.00 0.00 85 1014.4
20260508074505 61 4 0.0 0.0 0.00 0.00 0.00 85 1014.4
20260508073109 61 4 0.0 0.0 0.00 0.00 0.00 85 1014.4
20260508071607 61 8 0.0 0.0 0.00 0.00 0.00 84 1014.5
20260508070016 61 4 0.0 0.0 0.00 0.00 0.00 84 1014.7
20260508064528 61 4 0.0 0.0 0.00 0.00 0.00 84 1014.6
20260508063119 61 4 0.0 0.0 0.00 0.00 0.00 84 1015.1
20260508061520 61 8 0.0 0.0 0.00 0.00 0.00 84 1015.0
20260508060021 61 8 0.0 0.0 0.00 0.00 0.00 84 1014.5
20260508054535 61 4 0.0 0.0 0.00 0.00 0.00 83 1015.2
20260508053106 61 4 0.0 0.0 0.00 0.00 0.00 84 1014.9
20260508050011 62 4 0.0 0.0 0.00 0.00 0.00 83 1014.9
20260508044504 62 4 0.0 0.0 0.00 0.00 0.00 82 1015.0
20260508043007 62 4 0.0 0.0 0.00 0.00 0.00 81 1015.3
20260508041511 63 4 0.0 0.0 0.00 0.00 0.00 80 1015.1
20260508040121 63 4 0.0 0.0 0.00 0.00 0.00 81 1014.8
20260508034607 63 4 0.0 0.0 0.00 0.00 0.00 81 1015.2
20260508033007 63 4 0.0 0.0 0.00 0.00 0.00 81 1015.2
20260508031612 63 4 0.0 0.0 0.00 0.00 0.00 80 1015.1
20260508030021 63 8 0.0 0.0 0.00 0.00 0.00 81 1015.4
20260508024526 62 4 0.0 0.0 0.00 0.00 0.00 80 1015.5
20260508023107 63 4 0.0 0.0 0.00 0.00 0.00 79 1015.2
20260508021508 64 4 0.0 0.0 0.00 0.00 0.00 79 1014.7
20260508020014 64 4 0.0 0.0 0.00 0.00 0.00 78 1015.0
20260508014617 65 4 0.0 0.0 0.00 0.00 0.00 78 1015.1
20260508013015 65 8 0.0 0.9 0.00 0.00 0.00 77 1014.6
20260508011514 66 4 0.0 1.7 0.00 0.00 0.00 75 1014.1
20260508010106 66 4 0.0 1.7 0.00 0.00 0.00 75 1014.4